SWA1644 KMCO-KSRQ

Flight info

Callsign SWA1644
Flight time 0h 23m
Altitude 12000
Route FSHUN4 PLUMR CURSD
Aircraft B738/M-SADE2E3GIJ4RWZ/LB1D1

Departure

Time 2026-05-06 10:02
Airport Orlando International Airport (KMCO)

Arrival

Time 2026-05-06 10:25
Airport Sarasota Bradenton International Airport (KSRQ)
Time Latitude Longitude Altitude Speed Heading
2026-05-06 09:31 28.43549 -81.30054 94 ft 0 kts 254°
2026-05-06 09:56 28.43554 -81.30031 94 ft 4 kts 253°
2026-05-06 09:56 28.43562 -81.30001 94 ft 4 kts 252°
2026-05-06 09:56 28.43571 -81.29972 95 ft 4 kts 251°
2026-05-06 09:56 28.43580 -81.29943 93 ft 4 kts 248°
2026-05-06 09:57 28.43591 -81.29915 92 ft 4 kts 240°
2026-05-06 09:57 28.43607 -81.29892 94 ft 4 kts 210°
2026-05-06 09:57 28.43618 -81.29888 92 ft 0 kts 179°
2026-05-06 10:00 28.43598 -81.29888 95 ft 9 kts 182°
2026-05-06 10:00 28.43549 -81.29824 96 ft 14 kts 93°
2026-05-06 10:00 28.43550 -81.29715 97 ft 13 kts 89°
2026-05-06 10:00 28.43550 -81.29618 98 ft 11 kts 98°
2026-05-06 10:01 28.43489 -81.29587 97 ft 13 kts 179°
2026-05-06 10:01 28.43194 -81.29583 99 ft 83 kts 179°
2026-05-06 10:01 28.42357 -81.29575 96 ft 155 kts 179°
2026-05-06 10:01 28.41173 -81.29561 675 ft 172 kts 179°
2026-05-06 10:02 28.40004 -81.29528 1725 ft 166 kts 177°
2026-05-06 10:02 28.38783 -81.29730 2096 ft 196 kts 202°
2026-05-06 10:02 28.37470 -81.30428 2327 ft 221 kts 204°
2026-05-06 10:02 28.35994 -81.31185 2539 ft 245 kts 204°
2026-05-06 10:03 28.34380 -81.32014 3012 ft 260 kts 204°
2026-05-06 10:03 28.32700 -81.32826 3757 ft 265 kts 195°
2026-05-06 10:03 28.30852 -81.33005 4517 ft 270 kts 180°
2026-05-06 10:03 28.28952 -81.32999 5275 ft 275 kts 185°
2026-05-06 10:04 28.27092 -81.33576 6143 ft 283 kts 204°
2026-05-06 10:04 28.25264 -81.34482 7029 ft 290 kts 205°
2026-05-06 10:04 28.23407 -81.35415 7968 ft 294 kts 205°
2026-05-06 10:04 28.21521 -81.36353 8925 ft 298 kts 205°
2026-05-06 10:05 28.19597 -81.37295 9872 ft 303 kts 205°
2026-05-06 10:05 28.17626 -81.38247 10556 ft 318 kts 205°
2026-05-06 10:05 28.15496 -81.39270 10791 ft 345 kts 205°
2026-05-06 10:05 28.13238 -81.40345 11372 ft 357 kts 205°
2026-05-06 10:06 28.10938 -81.41433 11875 ft 360 kts 205°
2026-05-06 10:06 28.08614 -81.42529 11984 ft 369 kts 205°
2026-05-06 10:06 28.06182 -81.43677 12000 ft 384 kts 205°
2026-05-06 10:06 28.03697 -81.44847 11994 ft 387 kts 205°
2026-05-06 10:07 28.01212 -81.46013 11981 ft 385 kts 205°
2026-05-06 10:07 27.98742 -81.47173 11988 ft 384 kts 205°
2026-05-06 10:07 27.96305 -81.48319 11995 ft 384 kts 205°
2026-05-06 10:07 27.93839 -81.49478 11986 ft 384 kts 205°
2026-05-06 10:08 27.91433 -81.50773 11983 ft 382 kts 213°
2026-05-06 10:08 27.89263 -81.52478 11993 ft 379 kts 220°
2026-05-06 10:08 27.87171 -81.54296 11988 ft 380 kts 220°
2026-05-06 10:08 27.85082 -81.56126 11986 ft 380 kts 220°
2026-05-06 10:09 27.82987 -81.57949 11982 ft 380 kts 220°
2026-05-06 10:09 27.80883 -81.59765 11990 ft 380 kts 220°
2026-05-06 10:09 27.78774 -81.61573 11989 ft 381 kts 220°
2026-05-06 10:09 27.76662 -81.63378 11984 ft 381 kts 220°
2026-05-06 10:10 27.74576 -81.65156 11971 ft 368 kts 220°
2026-05-06 10:10 27.72571 -81.66862 11972 ft 354 kts 220°
2026-05-06 10:10 27.70615 -81.68532 11872 ft 353 kts 221°
2026-05-06 10:10 27.68841 -81.70419 11481 ft 349 kts 233°
2026-05-06 10:11 27.67367 -81.72570 11041 ft 345 kts 236°
2026-05-06 10:11 27.65945 -81.74737 10677 ft 340 kts 236°
2026-05-06 10:11 27.64566 -81.76845 10550 ft 328 kts 236°
2026-05-06 10:11 27.63227 -81.78881 10403 ft 318 kts 236°
2026-05-06 10:12 27.61924 -81.80849 10268 ft 309 kts 236°
2026-05-06 10:12 27.61080 -81.82120 10184 ft 302 kts 236°
2026-05-06 10:12 27.59837 -81.83986 10056 ft 294 kts 236°
2026-05-06 10:12 27.58223 -81.86404 9679 ft 290 kts 236°
2026-05-06 10:13 27.57403 -81.87629 9489 ft 289 kts 235°
2026-05-06 10:13 27.55809 -81.90011 9097 ft 287 kts 235°
2026-05-06 10:13 27.54609 -81.91801 8799 ft 285 kts 235°
2026-05-06 10:13 27.53417 -81.93581 8503 ft 284 kts 235°
2026-05-06 10:14 27.52614 -81.94779 8303 ft 283 kts 235°
2026-05-06 10:14 27.51429 -81.96546 8008 ft 282 kts 235°
2026-05-06 10:14 27.50263 -81.98285 7715 ft 281 kts 235°
2026-05-06 10:14 27.49086 -82.00036 7417 ft 280 kts 235°
2026-05-06 10:15 27.47909 -82.01789 7120 ft 280 kts 235°
2026-05-06 10:15 27.46832 -82.03458 6903 ft 276 kts 237°
2026-05-06 10:15 27.45769 -82.05238 6694 ft 272 kts 238°
2026-05-06 10:15 27.44729 -82.07018 6496 ft 272 kts 238°
2026-05-06 10:16 27.43688 -82.08800 6291 ft 272 kts 238°
2026-05-06 10:16 27.42646 -82.10579 6080 ft 272 kts 238°
2026-05-06 10:16 27.41605 -82.12349 5877 ft 271 kts 238°
2026-05-06 10:16 27.40567 -82.14111 5674 ft 269 kts 237°
2026-05-06 10:17 27.39534 -82.15858 5480 ft 267 kts 237°
2026-05-06 10:17 27.38509 -82.17590 5276 ft 265 kts 237°
2026-05-06 10:17 27.37488 -82.19312 5080 ft 263 kts 237°
2026-05-06 10:17 27.36476 -82.21021 4887 ft 261 kts 237°
2026-05-06 10:18 27.35472 -82.22716 4691 ft 260 kts 237°
2026-05-06 10:18 27.34473 -82.24403 4501 ft 258 kts 237°
2026-05-06 10:18 27.33483 -82.26072 4298 ft 256 kts 236°
2026-05-06 10:18 27.32498 -82.27736 4118 ft 255 kts 236°
2026-05-06 10:19 27.31518 -82.29388 3927 ft 254 kts 236°
2026-05-06 10:19 27.30537 -82.31041 3746 ft 253 kts 235°
2026-05-06 10:19 27.29565 -82.32677 3560 ft 249 kts 235°
2026-05-06 10:19 27.28613 -82.34278 3402 ft 242 kts 235°
2026-05-06 10:20 27.27700 -82.35813 3207 ft 231 kts 235°
2026-05-06 10:20 27.26829 -82.37279 3032 ft 219 kts 236°
2026-05-06 10:20 27.26381 -82.38844 2841 ft 211 kts 273°
2026-05-06 10:20 27.26908 -82.40318 2724 ft 201 kts 302°
2026-05-06 10:21 27.27714 -82.41602 2560 ft 200 kts 307°
2026-05-06 10:21 27.28544 -82.42802 2402 ft 188 kts 310°
2026-05-06 10:21 27.29395 -82.43863 2250 ft 180 kts 313°
2026-05-06 10:21 27.30260 -82.44868 2123 ft 180 kts 314°
2026-05-06 10:22 27.31144 -82.45880 2010 ft 182 kts 314°
2026-05-06 10:22 27.32020 -82.46883 1873 ft 182 kts 315°
2026-05-06 10:22 27.32916 -82.47891 1720 ft 181 kts 314°
2026-05-06 10:22 27.33768 -82.48866 1456 ft 169 kts 314°
2026-05-06 10:23 27.34560 -82.49780 1252 ft 158 kts 314°
2026-05-06 10:23 27.35322 -82.50657 1056 ft 156 kts 314°
2026-05-06 10:23 27.36081 -82.51543 846 ft 159 kts 315°
2026-05-06 10:23 27.36851 -82.52430 637 ft 156 kts 315°
2026-05-06 10:24 27.37597 -82.53284 413 ft 149 kts 316°
2026-05-06 10:24 27.38309 -82.54104 183 ft 148 kts 315°
2026-05-06 10:24 27.39029 -82.54922 35 ft 143 kts 314°
2026-05-06 10:24 27.39617 -82.55596 30 ft 76 kts 314°
2026-05-06 10:25 27.39844 -82.55856 28 ft 33 kts 314°
2026-05-06 10:25 27.39946 -82.55976 27 ft 15 kts 306°
2026-05-06 10:25 27.39910 -82.56049 29 ft 13 kts 186°
2026-05-06 10:25 27.39831 -82.56017 29 ft 13 kts 135°
2026-05-06 10:26 27.39751 -82.55926 28 ft 21 kts 134°
2026-05-06 10:26 27.39641 -82.55800 30 ft 23 kts 134°
2026-05-06 10:26 27.39531 -82.55674 30 ft 22 kts 134°
2026-05-06 10:26 27.39423 -82.55550 28 ft 22 kts 134°
2026-05-06 10:27 27.39319 -82.55431 29 ft 18 kts 135°
2026-05-06 10:27 27.39229 -82.55408 30 ft 14 kts 216°
2026-05-06 10:27 27.39153 -82.55465 30 ft 12 kts 191°
2026-05-06 10:27 27.39078 -82.55445 30 ft 11 kts 158°
2026-05-06 10:28 27.39035 -82.55425 29 ft 3 kts 158°
2026-05-06 10:28 27.39032 -82.55424 29 ft 0 kts 158°